AirNav   ProFlight Series 2 Aviation Headset
 
 519 users online  

FL55 Sanford Seaplane Base
Sanford, Florida, USA

GOING TO SANFORD?


FAA INFORMATION EFFECTIVE 16 JULY 2020

Location

FAA Identifier: FL55
Lat/Long: 28-49-22.0000N 081-15-48.0000W
28-49.366667N 081-15.800000W
28.8227778,-81.2633333
(estimated)
Elevation: 6 ft. / 2 m (estimated)
Variation: 05W (2000)
Time zone: UTC -4 (UTC -5 during Standard Time)
Zip code: 32771

Seaplane Base Operations

Seaplane Base use: Private use. Permission required prior to landing
Activation date: 01/2001
Control tower: no
ARTCC: JACKSONVILLE CENTER
FSS: SAINT PETERSBURG FLIGHT SERVICE STATION
Attendance: UNATNDD
Segmented circle: no

Seaplane Base Communications

WX ASOS at SFB (3 nm SE): PHONE 407-321-9384
WX AWOS-3 at DED (15 nm N): 119.575 (386-740-5811)
WX ASOS at ORL (17 nm S): PHONE 407-658-6753

Nearby radio navigation aids

VOR radial/distance  VOR name  Freq  Var
ORLr013/17.2ORLANDO VORTAC112.2000E
OMNr195/29.9ORMOND BEACH VORTAC112.6000E

Seaplane Base Services

Runway Information

Runway 9W/27W

Dimensions: 4000 x 1000 ft. / 1219 x 305 m
Surface: water
RUNWAY 9W  RUNWAY 27W
Traffic pattern: leftleft

Seaplane Base Ownership and Management from official FAA records

Ownership: Privately-owned
Owner: LOUIS D. BELL
448 LUFBERRY CIRCLE
WILLIAMSON, GA 30292
Phone 352-516-0000
Manager: LOUIS D. BELL
448 LUFBERRY CIRCLE
WILLIAMSON, GA 30292
Phone 352-516-0000

Additional Remarks

FOR CD CTC ORLANDO APCH AT 407-852-7553.

Instrument Procedures

There are no published instrument procedures at FL55.

Some nearby airports with instrument procedures:

KSFB - Orlando Sanford International Airport (3 nm SE)
KDED - DeLand Municipal Airport-Sidney H Taylor Field (15 nm N)
KORL - Executive Airport (17 nm S)
X04 - Orlando Apopka Airport (18 nm W)
X50 - Massey Ranch Airpark (20 nm NE)
 
Loc | Ops | Rwys | IFR | FBO | Links
Com | Nav | Svcs | Stats | Notes


 
Area around FL55 (Sanford Seaplane Base)
 
Road maps at: MapQuest Bing Google
 
Aerial photo
No photo
 
Sectional chart

 
Airport distance calculator
Flying to Sanford Seaplane Base? Find the distance to fly.

From to FL55

Sunrise and sunset
Times for 12-Aug-2020
 Local
(UTC-4)
 Zulu
(UTC)
Morning civil twilight06:2910:29
Sunrise06:5410:54
Sunset20:0600:06
Evening civil twilight20:3100:31

Current date and time
Zulu (UTC)  12-Aug-2020 10:38:09
Local (UTC-4)  12-Aug-2020 06:38:09
 
METAR
KSFB 
4nm SE 
120953Z AUTO 24004KT 10SM CLR 25/23 A3002 RMK AO2 SLP164 T02500228 TSNO
KDED 
15nm N 
121015Z AUTO 00000KT 10SM CLR 24/23 A3003 RMK AO2 T02420230
KORL 
17nm S 
111753Z 27006KT 10SM FEW048 34/21 A3002
TAF
KSFB 
4nm SE 
120540Z 1206/1306 VRB03KT P6SM SCT250 FM121500 19004KT P6SM SCT030 SCT250 FM121900 18007KT P6SM VCTS SCT045CB SCT120 BKN200 FM130000 17005KT P6SM VCSH FEW060 SCT120 BKN250 FM130300 VRB03KT P6SM FEW030 BKN250
NOTAMs
Click for the latest NOTAMs
NOTAMs are issued by the DoD/FAA and will open in a separate window not controlled by AirNav.

 

 
 

Would you like to see your business listed on this page?

 If your business provides an interesting product or service to pilots, flight crews, aircraft, or users of the Sanford Seaplane Base, you should consider listing it here.  To start the listing process, click on the button below
 
Add a business
 

Other Pages about Sanford Seaplane Base

Update a link
 
Copyright © AirNav, LLC. All rights reserved. Privacy Policy  Contact